,,,PA_Meas_PMT16A,,PR_Meas_QMR101_102,,RH_Meas_QMH101,,SR_Meas_QMS101,,TA_Meas_QMH101,,GenWind,,GenWind,
date,time,status,PA,status,PR,status,RH,status,SR,status,TA,status,DirAvg,status,SpdAvg,
2008-09-04, 00:00:04,VALID,1003.61,VALID,0,VALID,92.5993,VALID,0,VALID,23.9761,VALID,58,VALID,0.270312,
2008-09-04, 00:01:04,VALID,1003.58,VALID,0,VALID,92.3781,VALID,0,VALID,23.9742,VALID,42,VALID,0.534766,
2008-09-04, 00:02:04,VALID,1003.57,VALID,0,VALID,92.3018,VALID,0,VALID,23.9973,VALID,42,VALID,0.287891,
2008-09-04, 00:03:04,VALID,1003.6,VALID,0,VALID,92.3323,VALID,0,VALID,23.9353,VALID,38,VALID,0.513672,
2008-09-04, 00:04:04,VALID,1003.54,VALID,0,VALID,92.4239,VALID,0,VALID,23.9566,VALID,29,VALID,0.585547,
2008-09-04, 00:05:04,VALID,1003.56,VALID,0,VALID,92.2408,VALID,0.100563,VALID,23.9955,VALID,27,VALID,0.676172,
2008-09-04, 00:06:04,VALID,1003.54,VALID,0,VALID,92.2408,VALID,0,VALID,23.9973,VALID,29,VALID,0.714453,
2008-09-04, 00:07:04,VALID,1003.52,VALID,0,VALID,92.4163,VALID,0,VALID,23.9742,VALID,22,VALID,0.425,
2008-09-04, 00:08:04,VALID,1003.55,VALID,0,VALID,91.928,VALID,0.100563,VALID,23.9742,VALID,45,VALID,0.592578,
2008-09-04, 00:09:04,VALID,1003.56,VALID,0,VALID,91.9585,VALID,0,VALID,23.9389,VALID,48,VALID,0.337109,
2008-09-04, 00:10:04,VALID,1003.57,VALID,0,VALID,92.0958,VALID,0,VALID,23.8982,VALID,64,VALID,0.237109,
2008-09-04, 00:11:04,VALID,1003.61,VALID,0,VALID,92.1264,VALID,0,VALID,23.8787,VALID,64,VALID,0.00078125,
2008-09-04, 00:12:04,VALID,1003.59,VALID,0,VALID,92.3171,VALID,0,VALID,23.8398,VALID,70,VALID,0.512891,
2008-09-04, 00:13:04,VALID,1003.64,VALID,0,VALID,92.4773,VALID,0,VALID,23.8593,VALID,70,VALID,0.117969,
2008-09-04, 00:14:04,VALID,1003.62,VALID,0,VALID,92.4315,VALID,0,VALID,23.8611,VALID,69,VALID,0.400391,
2008-09-04, 00:15:04,VALID,1003.63,VALID,0,VALID,92.462,VALID,0,VALID,23.8416,VALID,68,VALID,0.275391,
2008-09-04, 00:16:04,VALID,1003.6,VALID,0,VALID,92.4086,VALID,0,VALID,23.8009,VALID,68,VALID,0.19375,
2008-09-04, 00:17:04,VALID,1003.63,VALID,0,VALID,92.6222,VALID,0,VALID,23.7832,VALID,68,VALID,0.502734,
2008-09-04, 00:18:04,VALID,1003.65,VALID,0,VALID,92.729,VALID,0,VALID,23.7832,VALID,68,VALID,0.40625,
2008-09-04, 00:19:04,VALID,1003.64,VALID,0,VALID,92.7214,VALID,0,VALID,23.7637,VALID,68,VALID,0.417188,
2008-09-04, 00:20:04,VALID,1003.65,VALID,0,VALID,92.813,VALID,0,VALID,23.723,VALID,68,VALID,0.251563,
2008-09-04, 00:21:04,VALID,1003.64,VALID,0,VALID,92.9121,VALID,0,VALID,23.7443,VALID,68,VALID,0.421094,
2008-09-04, 00:22:04,VALID,1003.62,VALID,0,VALID,92.9503,VALID,0,VALID,23.7248,VALID,68,VALID,0.326562,
2008-09-04, 00:23:04,VALID,1003.57,VALID,0,VALID,92.9579,VALID,0,VALID,23.6841,VALID,68,VALID,0.311719,
2008-09-04, 00:24:04,VALID,1003.58,VALID,0,VALID,93.0342,VALID,0,VALID,23.6859,VALID,68,VALID,0.162109,
2008-09-04, 00:25:04,VALID,1003.57,VALID,0,VALID,93.0342,VALID,0,VALID,23.6859,VALID,68,VALID,0.388672,
2008-09-04, 00:26:04,VALID,1003.53,VALID,0,VALID,92.9808,VALID,0,VALID,23.6469,VALID,68,VALID,0,
2008-09-04, 00:27:04,VALID,1003.51,VALID,0,VALID,93.0037,VALID,0,VALID,23.608,VALID,36,VALID,0.247656,
2008-09-04, 00:28:04,VALID,1003.48,VALID,0,VALID,93.1029,VALID,0,VALID,23.5885,VALID,20,VALID,0.564844,
2008-09-04, 00:29:04,VALID,1003.47,VALID,0,VALID,93.1715,VALID,0,VALID,23.5496,VALID,18,VALID,0.225781,
2008-09-04, 00:30:04,VALID,1003.47,VALID,0,VALID,93.3088,VALID,0,VALID,23.5107,VALID,18,VALID,0.266797,
2008-09-04, 00:31:04,VALID,1003.43,VALID,0,VALID,93.3012,VALID,0,VALID,23.5107,VALID,18,VALID,0.442969,
2008-09-04, 00:32:04,VALID,1003.4,VALID,0,VALID,93.469,VALID,0,VALID,23.4912,VALID,18,VALID,0.246875,
2008-09-04, 00:33:04,VALID,1003.4,VALID,0,VALID,93.4538,VALID,0,VALID,23.4523,VALID,18,VALID,0.385156,
2008-09-04, 00:34:04,VALID,1003.38,VALID,0,VALID,93.5758,VALID,0,VALID,23.4328,VALID,18,VALID,0.292188,
2008-09-04, 00:35:04,VALID,1003.35,VALID,0,VALID,93.6598,VALID,0,VALID,23.4328,VALID,18,VALID,0.0621094,
2008-09-04, 00:36:04,VALID,1003.34,VALID,0,VALID,93.881,VALID,0,VALID,23.4311,VALID,18,VALID,0.354297,
2008-09-04, 00:37:04,VALID,1003.34,VALID,0,VALID,93.8734,VALID,0,VALID,23.4311,VALID,18,VALID,0.100781,
2008-09-04, 00:38:04,VALID,1003.33,VALID,0,VALID,93.881,VALID,0.100563,VALID,23.4293,VALID,18,VALID,0.535156,
2008-09-04, 00:39:04,VALID,1003.37,VALID,0,VALID,94.0259,VALID,0.100563,VALID,23.47,VALID,18,VALID,0.1875,
2008-09-04, 00:40:04,VALID,1003.33,VALID,0,VALID,94.0336,VALID,0,VALID,23.47,VALID,21,VALID,0.312109,
2008-09-04, 00:41:04,VALID,1003.33,VALID,0,VALID,94.0336,VALID,0.100563,VALID,23.4894,VALID,21,VALID,0.281641,
2008-09-04, 00:42:04,VALID,1003.31,VALID,0,VALID,93.8963,VALID,0,VALID,23.4293,VALID,21,VALID,0.222656,
2008-09-04, 00:43:04,VALID,1003.32,VALID,0,VALID,93.9039,VALID,0,VALID,23.4311,VALID,21,VALID,0.381641,
2008-09-04, 00:44:04,VALID,1003.29,VALID,0,VALID,93.9954,VALID,0,VALID,23.4311,VALID,21,VALID,0.203516,
2008-09-04, 00:45:04,VALID,1003.28,VALID,0,VALID,94.0717,VALID,0,VALID,23.4505,VALID,21,VALID,0.0453125,
2008-09-04, 00:46:04,VALID,1003.28,VALID,0,VALID,94.1022,VALID,0,VALID,23.4505,VALID,21,VALID,0.380469,
2008-09-04, 00:47:04,VALID,1003.31,VALID,0,VALID,94.087,VALID,0.100563,VALID,23.4505,VALID,21,VALID,0.266406,
2008-09-04, 00:48:04,VALID,1003.32,VALID,0,VALID,94.1785,VALID,0,VALID,23.4682,VALID,24,VALID,0.70625,
2008-09-04, 00:49:04,VALID,1003.26,VALID,0,VALID,94.2624,VALID,0,VALID,23.5089,VALID,26,VALID,0.310156,
2008-09-04, 00:50:04,VALID,1003.25,VALID,0,VALID,94.209,VALID,0,VALID,23.4877,VALID,26,VALID,0.357812,
2008-09-04, 00:51:04,VALID,1003.28,VALID,0,VALID,93.8963,VALID,0.100563,VALID,23.47,VALID,26,VALID,0.395703,
2008-09-04, 00:52:04,VALID,1003.27,VALID,0,VALID,93.8123,VALID,0,VALID,23.4116,VALID,26,VALID,0.242188,
2008-09-04, 00:53:04,VALID,1003.24,VALID,0,VALID,93.8963,VALID,0,VALID,23.3921,VALID,26,VALID,0.338281,
2008-09-04, 00:54:04,VALID,1003.22,VALID,0,VALID,93.9725,VALID,0,VALID,23.3727,VALID,26,VALID,0.539453,
2008-09-04, 00:55:04,VALID,1003.2,VALID,0,VALID,94.1099,VALID,0.100563,VALID,23.3727,VALID,26,VALID,0.146875,
2008-09-04, 00:56:04,VALID,1003.22,VALID,0,VALID,94.3082,VALID,0,VALID,23.3921,VALID,26,VALID,0.266406,
2008-09-04, 00:57:04,VALID,1003.24,VALID,0,VALID,94.2319,VALID,0,VALID,23.3727,VALID,33,VALID,0.220313,
2008-09-04, 00:58:04,VALID,1003.25,VALID,0,VALID,94.6057,VALID,0,VALID,23.47,VALID,35,VALID,0.785156,
2008-09-04, 00:59:04,VALID,1003.26,VALID,0,VALID,94.56,VALID,0,VALID,23.5266,VALID,36,VALID,0.257031,
2008-09-04, 01:00:04,VALID,1003.24,VALID,0,VALID,94.1862,VALID,0.100563,VALID,23.5478,VALID,36,VALID,0.163281,
2008-09-04, 01:01:04,VALID,1003.29,VALID,0,VALID,93.9802,VALID,0,VALID,23.5284,VALID,36,VALID,0.0433594,
2008-09-04, 01:02:04,VALID,1003.29,VALID,0,VALID,94.0336,VALID,0,VALID,23.5496,VALID,55,VALID,0.126953,
2008-09-04, 01:03:04,VALID,1003.3,VALID,0,VALID,94.087,VALID,0.100563,VALID,23.5284,VALID,55,VALID,0.553516,
2008-09-04, 01:04:04,VALID,1003.3,VALID,0,VALID,94.3158,VALID,0,VALID,23.5868,VALID,56,VALID,0.145703,
2008-09-04, 01:05:04,VALID,1003.31,VALID,0,VALID,94.2853,VALID,0,VALID,23.6062,VALID,51,VALID,0.485938,
2008-09-04, 01:06:04,VALID,1003.32,VALID,0,VALID,94.3082,VALID,0,VALID,23.6044,VALID,47,VALID,0.335547,
2008-09-04, 01:07:04,VALID,1003.29,VALID,0,VALID,94.1556,VALID,0,VALID,23.6044,VALID,47,VALID,0.232031,
2008-09-04, 01:08:04,VALID,1003.32,VALID,0,VALID,94.1404,VALID,0,VALID,23.585,VALID,46,VALID,0.402734,
2008-09-04, 01:09:04,VALID,1003.35,VALID,0,VALID,94.0412,VALID,0,VALID,23.6062,VALID,46,VALID,0.508203,
2008-09-04, 01:10:04,VALID,1003.36,VALID,0,VALID,93.9344,VALID,0.100563,VALID,23.5868,VALID,46,VALID,0.59375,
2008-09-04, 01:11:04,VALID,1003.38,VALID,0,VALID,93.9649,VALID,0,VALID,23.5673,VALID,46,VALID,0.377344,
2008-09-04, 01:12:04,VALID,1003.39,VALID,0,VALID,94.0259,VALID,0.100563,VALID,23.546,VALID,46,VALID,0.0207031,
2008-09-04, 01:13:04,VALID,1003.42,VALID,0,VALID,94.0259,VALID,0,VALID,23.5478,VALID,46,VALID,0.285156,
2008-09-04, 01:14:04,VALID,1003.42,VALID,0,VALID,94.1404,VALID,0.100563,VALID,23.5655,VALID,66,VALID,0.565234,
2008-09-04, 01:15:04,VALID,1003.45,VALID,0,VALID,94.3082,VALID,0,VALID,23.6062,VALID,51,VALID,0.574219,
2008-09-04, 01:16:04,VALID,1003.44,VALID,0,VALID,94.1175,VALID,0.100563,VALID,23.6062,VALID,49,VALID,0.0914062,
2008-09-04, 01:17:04,VALID,1003.43,VALID,0,VALID,94.0031,VALID,0,VALID,23.5868,VALID,49,VALID,0.283594,
2008-09-04, 01:18:04,VALID,1003.41,VALID,0,VALID,93.9878,VALID,0,VALID,23.5868,VALID,49,VALID,0.34375,
2008-09-04, 01:19:04,VALID,1003.39,VALID,0,VALID,93.942,VALID,0,VALID,23.5868,VALID,49,VALID,0.0339844,
2008-09-04, 01:20:04,VALID,1003.35,VALID,0,VALID,93.8963,VALID,0,VALID,23.5673,VALID,49,VALID,0,
2008-09-04, 01:21:04,VALID,1003.33,VALID,0,VALID,93.9573,VALID,0.100563,VALID,23.546,VALID,49,VALID,0.339063,
2008-09-04, 01:22:04,VALID,1003.31,VALID,0,VALID,94.0259,VALID,0,VALID,23.5673,VALID,49,VALID,0.398047,
2008-09-04, 01:23:04,VALID,1003.27,VALID,0,VALID,93.9802,VALID,0,VALID,23.5691,VALID,49,VALID,0.278516,
2008-09-04, 01:24:04,VALID,1003.27,VALID,0,VALID,93.8505,VALID,0,VALID,23.5089,VALID,49,VALID,0.374219,
2008-09-04, 01:25:04,VALID,1003.27,VALID,0,VALID,93.9039,VALID,0,VALID,23.4894,VALID,32,VALID,0.601563,
2008-09-04, 01:26:04,VALID,1003.29,VALID,0,VALID,94.087,VALID,0,VALID,23.5089,VALID,22,VALID,0.0789063,
2008-09-04, 01:27:04,VALID,1003.26,VALID,0,VALID,94.1175,VALID,0.100563,VALID,23.5478,VALID,26,VALID,0.506641,
2008-09-04, 01:28:04,VALID,1003.22,VALID,0,VALID,93.8505,VALID,0.100563,VALID,23.4877,VALID,26,VALID,0.529688,
2008-09-04, 01:29:04,VALID,1003.22,VALID,0,VALID,93.942,VALID,0,VALID,23.47,VALID,26,VALID,0.512891,
2008-09-04, 01:30:04,VALID,1003.18,VALID,0,VALID,93.9573,VALID,0.100563,VALID,23.4505,VALID,26,VALID,0.580078,
2008-09-04, 01:31:04,VALID,1003.14,VALID,0,VALID,94.1022,VALID,0,VALID,23.4311,VALID,26,VALID,0.505859,
2008-09-04, 01:32:04,VALID,1003.11,VALID,0,VALID,94.3082,VALID,0,VALID,23.4894,VALID,30,VALID,0.571875,
2008-09-04, 01:33:04,VALID,1003.12,VALID,0,VALID,94.5066,VALID,0,VALID,23.5673,VALID,20,VALID,0.784766,
2008-09-04, 01:34:04,VALID,1003.09,VALID,0,VALID,94.9185,VALID,0.100563,VALID,23.723,VALID,19,VALID,1.22461,
2008-09-04, 01:35:04,VALID,1003.05,VALID,0,VALID,94.5676,VALID,0.100563,VALID,23.8964,VALID,34,VALID,0.709766,
2008-09-04, 01:36:04,VALID,1003.03,VALID,0,VALID,93.9725,VALID,0,VALID,23.9548,VALID,33,VALID,0.738672,
2008-09-04, 01:37:04,VALID,1003.04,VALID,0,VALID,93.7361,VALID,0,VALID,24.0345,VALID,38,VALID,0.880078,
2008-09-04, 01:38:04,VALID,1003.07,VALID,0,VALID,93.4767,VALID,0,VALID,24.1123,VALID,30,VALID,1.06992,
2008-09-04, 01:39:04,VALID,1003.07,VALID,0,VALID,93.1639,VALID,0,VALID,24.231,VALID,48,VALID,0.342969,
2008-09-04, 01:40:04,VALID,1003.09,VALID,0,VALID,92.8664,VALID,0,VALID,24.307,VALID,27,VALID,1.56328,
2008-09-04, 01:41:04,VALID,1003.11,VALID,0,VALID,92.1645,VALID,0,VALID,24.5601,VALID,12,VALID,1.25352,
2008-09-04, 01:42:04,VALID,1003.12,VALID,0,VALID,90.9515,VALID,0,VALID,24.8151,VALID,19,VALID,0.633203,
2008-09-04, 01:43:04,VALID,1003.12,VALID,0,VALID,90.0971,VALID,0,VALID,24.93,VALID,16,VALID,1.25,
2008-09-04, 01:44:04,VALID,1003.12,VALID,0,VALID,89.6546,VALID,0,VALID,25.0663,VALID,42,VALID,1.08047,
2008-09-04, 01:45:04,VALID,1003.08,VALID,0,VALID,89.2579,VALID,0,VALID,25.1461,VALID,17,VALID,0.940625,
2008-09-04, 01:46:04,VALID,1003.09,VALID,0,VALID,89.0214,VALID,0,VALID,25.224,VALID,62,VALID,0.666406,
2008-09-04, 01:47:04,VALID,1003.08,VALID,0,VALID,88.7544,VALID,0,VALID,25.263,VALID,75,VALID,0.303516,
2008-09-04, 01:48:04,VALID,1003.08,VALID,0,VALID,88.907,VALID,0,VALID,25.2611,VALID,35,VALID,0.628906,
2008-09-04, 01:49:04,VALID,1003.02,VALID,0,VALID,88.6781,VALID,0,VALID,25.2435,VALID,88,VALID,1.01797,
2008-09-04, 01:50:04,VALID,1003.01,VALID,0,VALID,88.9222,VALID,0,VALID,25.224,VALID,24,VALID,0.342578,
2008-09-04, 01:51:04,VALID,1002.97,VALID,0,VALID,89.1282,VALID,0,VALID,25.1656,VALID,22,VALID,0.460938,
2008-09-04, 01:52:04,VALID,1002.93,VALID,0,VALID,89.1282,VALID,0,VALID,25.1461,VALID,3,VALID,0.610156,
2008-09-04, 01:53:04,VALID,1002.89,VALID,0,VALID,89.174,VALID,0,VALID,25.1675,VALID,55,VALID,0.711328,
2008-09-04, 01:54:04,VALID,1002.89,VALID,0,VALID,89.0901,VALID,0,VALID,25.0877,VALID,84,VALID,0.631641,
2008-09-04, 01:55:04,VALID,1002.86,VALID,0,VALID,89.441,VALID,0,VALID,25.0488,VALID,71,VALID,0.504687,
2008-09-04, 01:56:04,VALID,1002.88,VALID,0,VALID,89.708,VALID,0,VALID,25.0098,VALID,71,VALID,0.51875,
2008-09-04, 01:57:04,VALID,1002.86,VALID,0,VALID,89.9216,VALID,0,VALID,24.9514,VALID,76,VALID,0.425391,
2008-09-04, 01:58:04,VALID,1002.86,VALID,0,VALID,90.2497,VALID,0,VALID,24.8735,VALID,53,VALID,0.200391,
2008-09-04, 01:59:04,VALID,1002.84,VALID,0,VALID,90.6158,VALID,0,VALID,24.8346,VALID,40,VALID,0.317969,
2008-09-04, 02:00:04,VALID,1002.83,VALID,0,VALID,91.0125,VALID,0,VALID,24.7761,VALID,40,VALID,0.152344,
2008-09-04, 02:01:04,VALID,1002.85,VALID,0,VALID,91.2414,VALID,0,VALID,24.7372,VALID,40,VALID,0,
2008-09-04, 02:02:04,VALID,1002.87,VALID,0,VALID,91.4779,VALID,0,VALID,24.6788,VALID,40,VALID,0.116406,
2008-09-04, 02:03:04,VALID,1002.89,VALID,0,VALID,91.5389,VALID,0,VALID,24.6204,VALID,40,VALID,0.133594,
2008-09-04, 02:04:04,VALID,1002.89,VALID,0,VALID,91.661,VALID,0,VALID,24.562,VALID,40,VALID,0,
2008-09-04, 02:05:04,VALID,1002.9,VALID,0,VALID,91.8746,VALID,0,VALID,24.5443,VALID,40,VALID,0.403516,
2008-09-04, 02:06:04,VALID,1002.89,VALID,0,VALID,91.9738,VALID,0,VALID,24.4665,VALID,42,VALID,0.36875,
2008-09-04, 02:07:04,VALID,1002.88,VALID,0,VALID,92.0577,VALID,0,VALID,24.408,VALID,44,VALID,0.371484,
2008-09-04, 02:08:04,VALID,1002.87,VALID,0,VALID,92.2179,VALID,0,VALID,24.3265,VALID,44,VALID,0.215234,
2008-09-04, 02:09:04,VALID,1002.83,VALID,0,VALID,92.3629,VALID,0,VALID,24.2875,VALID,43,VALID,0.354688,
2008-09-04, 02:10:04,VALID,1002.8,VALID,0,VALID,92.5917,VALID,0,VALID,24.2291,VALID,43,VALID,0.135156,
2008-09-04, 02:11:04,VALID,1002.75,VALID,0,VALID,92.813,VALID,0,VALID,24.231,VALID,43,VALID,0,
2008-09-04, 02:12:04,VALID,1002.78,VALID,0,VALID,92.9503,VALID,0,VALID,24.192,VALID,43,VALID,0,
2008-09-04, 02:13:04,VALID,1002.78,VALID,0,VALID,93.0495,VALID,0,VALID,24.1513,VALID,43,VALID,0,
2008-09-04, 02:14:04,VALID,1002.79,VALID,0,VALID,93.1181,VALID,0,VALID,24.1318,VALID,43,VALID,0,
2008-09-04, 02:15:04,VALID,1002.83,VALID,0,VALID,93.1639,VALID,0,VALID,24.0929,VALID,43,VALID,0,
2008-09-04, 02:16:04,VALID,1002.84,VALID,0,VALID,93.3012,VALID,0,VALID,24.0539,VALID,43,VALID,0,
2008-09-04, 02:17:04,VALID,1002.85,VALID,0,VALID,93.4462,VALID,0,VALID,24.0752,VALID,43,VALID,0.0992187,
2008-09-04, 02:18:04,VALID,1002.81,VALID,0,VALID,93.6216,VALID,0,VALID,24.0539,VALID,43,VALID,0.305859,
2008-09-04, 02:19:04,VALID,1002.85,VALID,0,VALID,93.7513,VALID,0,VALID,24.0345,VALID,7,VALID,0.172266,
2008-09-04, 02:20:04,VALID,1002.83,VALID,0,VALID,93.8657,VALID,0,VALID,24.015,VALID,7,VALID,0,
2008-09-04, 02:21:04,VALID,1002.8,VALID,0,VALID,93.9344,VALID,0,VALID,24.015,VALID,7,VALID,0,
2008-09-04, 02:22:04,VALID,1002.82,VALID,0,VALID,93.9573,VALID,0,VALID,23.9955,VALID,7,VALID,0.119141,
2008-09-04, 02:23:04,VALID,1002.88,VALID,0,VALID,94.0107,VALID,0,VALID,24.0168,VALID,7,VALID,0,
2008-09-04, 02:24:04,VALID,1002.92,VALID,0,VALID,94.0259,VALID,0,VALID,23.9973,VALID,7,VALID,0.0488281,
2008-09-04, 02:25:04,VALID,1002.94,VALID,0,VALID,94.0794,VALID,0,VALID,23.9779,VALID,7,VALID,0,
2008-09-04, 02:26:04,VALID,1002.93,VALID,0,VALID,94.087,VALID,0,VALID,23.9584,VALID,7,VALID,0.00195313,
2008-09-04, 02:27:04,VALID,1002.93,VALID,0,VALID,94.1938,VALID,0,VALID,23.9389,VALID,7,VALID,0,
2008-09-04, 02:28:04,VALID,1002.93,VALID,0,VALID,94.2853,VALID,0,VALID,23.9389,VALID,7,VALID,0,
2008-09-04, 02:29:04,VALID,1002.92,VALID,0,VALID,94.3006,VALID,0,VALID,23.9177,VALID,7,VALID,0,
2008-09-04, 02:30:04,VALID,1002.95,VALID,0,VALID,94.3387,VALID,0,VALID,23.9177,VALID,7,VALID,0,
2008-09-04, 02:31:04,VALID,1002.94,VALID,0,VALID,94.3387,VALID,0,VALID,23.8982,VALID,7,VALID,0,
2008-09-04, 02:32:04,VALID,1002.92,VALID,0,VALID,94.3235,VALID,0,VALID,23.9,VALID,7,VALID,0.291406,
2008-09-04, 02:33:04,VALID,1002.92,VALID,0,VALID,94.3998,VALID,0,VALID,23.8787,VALID,7,VALID,0.346484,
2008-09-04, 02:34:04,VALID,1002.91,VALID,0,VALID,94.415,VALID,0,VALID,23.8593,VALID,36,VALID,0.257031,
2008-09-04, 02:35:04,VALID,1002.91,VALID,0,VALID,94.415,VALID,0,VALID,23.8611,VALID,36,VALID,0.065625,
2008-09-04, 02:36:04,VALID,1002.9,VALID,0,VALID,94.4074,VALID,0,VALID,23.8203,VALID,36,VALID,0.11875,
2008-09-04, 02:37:04,VALID,1002.86,VALID,0,VALID,94.3235,VALID,0,VALID,23.7814,VALID,36,VALID,0.284766,
2008-09-04, 02:38:04,VALID,1002.87,VALID,0,VALID,94.3769,VALID,0,VALID,23.7443,VALID,36,VALID,0.339063,
2008-09-04, 02:39:04,VALID,1002.83,VALID,0,VALID,94.3158,VALID,0,VALID,23.7035,VALID,36,VALID,0.271094,
2008-09-04, 02:40:04,VALID,1002.86,VALID,0,VALID,94.3158,VALID,0,VALID,23.6452,VALID,36,VALID,0.529297,
2008-09-04, 02:41:04,VALID,1002.87,VALID,0,VALID,94.4608,VALID,0,VALID,23.6275,VALID,48,VALID,0.485547,
2008-09-04, 02:42:04,VALID,1002.88,VALID,0,VALID,94.5371,VALID,0,VALID,23.6062,VALID,52,VALID,0.321094,
2008-09-04, 02:43:04,VALID,1002.88,VALID,0,VALID,94.56,VALID,0,VALID,23.608,VALID,52,VALID,0.168359,
2008-09-04, 02:44:04,VALID,1002.86,VALID,0,VALID,94.5905,VALID,0,VALID,23.5868,VALID,52,VALID,0,
2008-09-04, 02:45:04,VALID,1002.89,VALID,0,VALID,94.621,VALID,0,VALID,23.5885,VALID,52,VALID,0.0492188,
2008-09-04, 02:46:04,VALID,1002.87,VALID,0,VALID,94.6668,VALID,0,VALID,23.5478,VALID,52,VALID,0,
2008-09-04, 02:47:04,VALID,1002.88,VALID,0,VALID,94.7125,VALID,0,VALID,23.5496,VALID,52,VALID,0,
2008-09-04, 02:48:04,VALID,1002.89,VALID,0,VALID,94.7125,VALID,0,VALID,23.5284,VALID,52,VALID,0,
2008-09-04, 02:49:04,VALID,1002.89,VALID,0,VALID,94.766,VALID,0,VALID,23.5089,VALID,52,VALID,0,
2008-09-04, 02:50:04,VALID,1002.91,VALID,0,VALID,94.8041,VALID,0,VALID,23.5284,VALID,52,VALID,0,
2008-09-04, 02:51:04,VALID,1002.93,VALID,0,VALID,94.8346,VALID,0,VALID,23.5089,VALID,52,VALID,0,
2008-09-04, 02:52:04,VALID,1002.99,VALID,0,VALID,94.9033,VALID,0,VALID,23.5284,VALID,52,VALID,0,
2008-09-04, 02:53:04,VALID,1003.05,VALID,0,VALID,94.9338,VALID,0,VALID,23.47,VALID,52,VALID,0,
2008-09-04, 02:54:04,VALID,1003.04,VALID,0,VALID,94.9109,VALID,0,VALID,23.5071,VALID,52,VALID,0,
2008-09-04, 02:55:04,VALID,1003.12,VALID,0,VALID,94.9796,VALID,0.100563,VALID,23.5284,VALID,52,VALID,0,
2008-09-04, 02:56:04,VALID,1003.11,VALID,0,VALID,95.033,VALID,0,VALID,23.5478,VALID,52,VALID,0.203125,
2008-09-04, 02:57:04,VALID,1003.13,VALID,0,VALID,95.0558,VALID,0.100563,VALID,23.5266,VALID,52,VALID,0,
2008-09-04, 02:58:04,VALID,1003.11,VALID,0,VALID,95.1169,VALID,0,VALID,23.5885,VALID,52,VALID,0,
2008-09-04, 02:59:04,VALID,1003.09,VALID,0,VALID,95.1474,VALID,0.100563,VALID,23.546,VALID,52,VALID,0,
2008-09-04, 03:00:04,VALID,1003.1,VALID,0,VALID,95.1855,VALID,0,VALID,23.5655,VALID,52,VALID,0,
2008-09-04, 03:01:04,VALID,1003.01,VALID,0,VALID,95.1703,VALID,0.100563,VALID,23.6062,VALID,52,VALID,0,
2008-09-04, 03:02:04,VALID,1003.01,VALID,0,VALID,95.1627,VALID,0.100563,VALID,23.6062,VALID,52,VALID,0,
2008-09-04, 03:03:04,VALID,1002.97,VALID,0,VALID,95.155,VALID,0,VALID,23.6062,VALID,52,VALID,0.224609,
2008-09-04, 03:04:04,VALID,1002.95,VALID,0,VALID,95.2161,VALID,0,VALID,23.6062,VALID,52,VALID,0,
2008-09-04, 03:05:04,VALID,1002.93,VALID,0,VALID,95.1932,VALID,0,VALID,23.6062,VALID,52,VALID,0.270312,
2008-09-04, 03:06:04,VALID,1002.94,VALID,0,VALID,95.1855,VALID,0,VALID,23.6062,VALID,52,VALID,0.0910156,
2008-09-04, 03:07:04,VALID,1002.96,VALID,0,VALID,95.2771,VALID,0.100563,VALID,23.6257,VALID,52,VALID,0,
2008-09-04, 03:08:04,VALID,1003.03,VALID,0,VALID,95.3152,VALID,0,VALID,23.6452,VALID,52,VALID,0,
2008-09-04, 03:09:04,VALID,1003.06,VALID,0,VALID,95.2923,VALID,0,VALID,23.6452,VALID,52,VALID,0,
2008-09-04, 03:10:04,VALID,1003.07,VALID,0,VALID,95.2542,VALID,0,VALID,23.6452,VALID,52,VALID,0,
2008-09-04, 03:11:04,VALID,1003.11,VALID,0,VALID,95.2542,VALID,0,VALID,23.6452,VALID,52,VALID,0,
2008-09-04, 03:12:04,VALID,1003.12,VALID,0,VALID,95.2542,VALID,0.100563,VALID,23.6257,VALID,52,VALID,0.0164062,
2008-09-04, 03:13:04,VALID,1003.14,VALID,0,VALID,95.2923,VALID,0,VALID,23.6452,VALID,52,VALID,0.0308594,
2008-09-04, 03:14:04,VALID,1003.15,VALID,0,VALID,95.3457,VALID,0.100563,VALID,23.6452,VALID,52,VALID,0.0207031,
2008-09-04, 03:15:04,VALID,1003.18,VALID,0,VALID,95.3686,VALID,0,VALID,23.6646,VALID,52,VALID,0.164063,
2008-09-04, 03:16:04,VALID,1003.21,VALID,0,VALID,95.3534,VALID,0,VALID,23.6841,VALID,52,VALID,0.16875,
2008-09-04, 03:17:04,VALID,1003.18,VALID,0,VALID,95.3534,VALID,0,VALID,23.6841,VALID,52,VALID,0,
2008-09-04, 03:18:04,VALID,1003.21,VALID,0,VALID,95.3686,VALID,0.100563,VALID,23.6628,VALID,52,VALID,0.471484,
2008-09-04, 03:19:04,VALID,1003.21,VALID,0,VALID,95.3686,VALID,0,VALID,23.6628,VALID,52,VALID,0.385938,
2008-09-04, 03:20:04,VALID,1003.21,VALID,0,VALID,95.3457,VALID,0,VALID,23.6841,VALID,52,VALID,0.323828,
2008-09-04, 03:21:04,VALID,1003.22,VALID,0,VALID,95.422,VALID,0,VALID,23.723,VALID,67,VALID,0.455469,
2008-09-04, 03:22:04,VALID,1003.21,VALID,0,VALID,95.4068,VALID,0,VALID,23.7035,VALID,67,VALID,0.276953,
2008-09-04, 03:23:04,VALID,1003.2,VALID,0,VALID,95.3229,VALID,0.100563,VALID,23.6841,VALID,67,VALID,0.126953,
2008-09-04, 03:24:04,VALID,1003.15,VALID,0,VALID,95.3076,VALID,0,VALID,23.6859,VALID,66,VALID,0.362109,
2008-09-04, 03:25:04,VALID,1003.14,VALID,0,VALID,95.3381,VALID,0,VALID,23.6646,VALID,55,VALID,0.325,
2008-09-04, 03:26:04,VALID,1003.13,VALID,0,VALID,95.4068,VALID,0,VALID,23.6841,VALID,52,VALID,0.373047,
2008-09-04, 03:27:04,VALID,1003.11,VALID,0,VALID,95.3991,VALID,0,VALID,23.723,VALID,51,VALID,0.275781,
2008-09-04, 03:28:04,VALID,1003.1,VALID,0,VALID,95.3991,VALID,0,VALID,23.723,VALID,51,VALID,0.457031,
2008-09-04, 03:29:04,VALID,1003.12,VALID,0,VALID,95.4144,VALID,0.100563,VALID,23.723,VALID,52,VALID,0.362891,
2008-09-04, 03:30:04,VALID,1003.11,VALID,0,VALID,95.4449,VALID,0,VALID,23.7425,VALID,51,VALID,0.373047,
2008-09-04, 03:31:04,VALID,1003.09,VALID,0,VALID,95.4526,VALID,0,VALID,23.7212,VALID,31,VALID,0.530859,
2008-09-04, 03:32:04,VALID,1003.07,VALID,0,VALID,95.4602,VALID,0,VALID,23.7619,VALID,20,VALID,0.211328,
2008-09-04, 03:33:04,VALID,1003.07,VALID,0,VALID,95.4678,VALID,0,VALID,23.7619,VALID,1,VALID,0.504687,
2008-09-04, 03:34:04,VALID,1003.06,VALID,0,VALID,95.4983,VALID,0,VALID,23.7814,VALID,1,VALID,0.455859,
2008-09-04, 03:35:04,VALID,1003.04,VALID,0,VALID,95.5975,VALID,0,VALID,23.8203,VALID,342,VALID,0.823047,
2008-09-04, 03:36:04,VALID,1003.03,VALID,0,VALID,95.5975,VALID,0.100563,VALID,23.838,VALID,344,VALID,0.314063,
2008-09-04, 03:37:04,VALID,1003.01,VALID,0,VALID,95.5136,VALID,0.100563,VALID,23.8185,VALID,3,VALID,0.259375,
2008-09-04, 03:38:04,VALID,1002.98,VALID,0,VALID,95.5365,VALID,0,VALID,23.8787,VALID,3,VALID,0.407031,
2008-09-04, 03:39:04,VALID,1002.94,VALID,0,VALID,95.5822,VALID,0,VALID,23.8982,VALID,3,VALID,0.501562,
2008-09-04, 03:40:04,VALID,1002.95,VALID,0,VALID,95.628,VALID,0.100563,VALID,23.9177,VALID,360,VALID,0.647656,
2008-09-04, 03:41:04,VALID,1002.9,VALID,0,VALID,95.7501,VALID,0,VALID,23.9937,VALID,353,VALID,0.932031,
2008-09-04, 03:42:04,VALID,1002.94,VALID,0,VALID,95.6051,VALID,0,VALID,24.0734,VALID,1,VALID,0.334375,
2008-09-04, 03:43:04,VALID,1002.96,VALID,0,VALID,95.4297,VALID,0,VALID,24.1142,VALID,1,VALID,0,
2008-09-04, 03:44:04,VALID,1002.93,VALID,0,VALID,95.3152,VALID,0,VALID,24.1123,VALID,1,VALID,0.469922,
2008-09-04, 03:45:04,VALID,1002.96,VALID,0,VALID,95.2389,VALID,0,VALID,24.091,VALID,1,VALID,0.148047,
2008-09-04, 03:46:04,VALID,1002.96,VALID,0,VALID,95.2237,VALID,0,VALID,24.13,VALID,2,VALID,0.228125,
2008-09-04, 03:47:04,VALID,1002.99,VALID,0,VALID,95.1627,VALID,0,VALID,24.1513,VALID,61,VALID,0.546484,